Flag for Canada Weather past 2 weeks in Gander, Newfoundland and Labrador, Canada

Now
46 °F

Light rain. Fog.


Feels Like: 40 °F
Forecast: 39 / 57 °F
Wind: 14 mph from South

Location: Gander Int. Airport

Current Time: May 22, 2015 at 10:11:59 PM

Latest Report: May 22, 2015 at 9:30 PM


Visibility: 6 mi

Pressure: 30.07 "Hg

Humidity: 82%

Dew point: 41 °F

Location of GanderLocation

Historic Weather in Gander — Graph

°F

Gander temperature yesterday

Maximum temperature yesterday: 57 °F (at 12:30 PM)
Minimum temperature yesterday: 41 °F (at 11:30 PM)
Average temperature yesterday: 50 °F

Past Weeks' High & Low Weather Summary

 TemperatureHumidityPressure
High70 °F (May 19, 5:30 PM)100% (May 8, 12:30 AM)30.50 "Hg (May 8, 12:30 AM)
Low27 °F (May 8, 12:30 AM)24% (May 15, 2:30 PM)29.37 "Hg (May 21, 6:30 AM)
Average44 °F76%30.00 "Hg
* Reported May 7 8:30 PM — May 22 8:30 PM, Gander, Weather by CustomWeather, © 2015

Note: Actual official high and low records may vary slightly from our data, if they occured in-between our weather recording intervals... More about our weather records

Advertising

Gander weather history for previous 24 hours

 ConditionsComfort  
Time TempWeatherWind HumidityBarometerVisibility
8:30 PM
Fri, May 22
52 °FSprinkles. Mostly cloudy.16 mph58%30.08 "Hg15 mi
7:30 PM55 °FMostly cloudy.18 mph55%30.09 "Hg20 mi
6:30 PM57 °FSprinkles. Cloudy.16 mph51%30.10 "Hg20 mi
5:30 PM59 °FCloudy.8 mph48%30.09 "Hg20 mi
4:30 PM61 °FMore clouds than sun.15 mph45%30.08 "Hg20 mi
3:30 PM63 °FBroken clouds.12 mph42%30.08 "Hg20 mi
2:30 PM63 °FBroken clouds.13 mph42%30.09 "Hg20 mi
1:30 PM63 °FBroken clouds.12 mph39%30.09 "Hg20 mi
12:30 PM61 °FOvercast.14 mph39%30.09 "Hg15 mi
11:30 AM59 °FPartly sunny.6 mph39%30.09 "Hg20 mi
10:30 AM57 °FScattered clouds.7 mph44%30.10 "Hg20 mi
9:30 AM54 °FPassing clouds.8 mph51%30.08 "Hg20 mi
8:30 AM48 °FPassing clouds.8 mph62%30.07 "Hg20 mi
7:30 AM45 °FPassing clouds.9 mph66%30.04 "Hg20 mi
6:30 AM41 °FSunny.7 mph76%30.01 "Hg20 mi
5:30 AM39 °FClear.13 mph75%30.00 "Hg20 mi
4:30 AM39 °FPassing clouds.12 mph75%29.97 "Hg20 mi
3:30 AM41 °FPassing clouds.14 mph70%29.95 "Hg20 mi
2:30 AM41 °FPassing clouds.14 mph70%29.91 "Hg20 mi
1:30 AM41 °FPassing clouds.12 mph70%29.88 "Hg20 mi
12:30 AM41 °FPassing clouds.12 mph76%29.84 "Hg20 mi
11:30 PM
Thu, May 21
41 °FPassing clouds.12 mph76%29.81 "Hg20 mi
10:30 PM43 °FPassing clouds.9 mph61%29.77 "Hg20 mi
Weather by CustomWeather, © 2015

See weather overviewHow to use our weather pages